Powrót do katalogu

STARLINK-36044

AktywnyŁącznośćVLEO
NORAD 66799·PAYLOAD·🇺🇸 United States

Wystrzelony Dec 1, 2025 z Cape Canaveral Space Force Station

Loading…

Następne Przeloty (najbliższe 24 godziny)

TLE

ŚwieżeSource: CelesTrak SupGP

Epoka: Sep 14, 2026, 23:05 UTC

1 66799C 25278J   26257.96229167 -.00039713  00000+0 -14387-2 0  2571
2 66799  42.9991 125.1867 0001497 267.8016 283.7979 15.27590937    18

Śledź STARLINK-36044 w czasie rzeczywistym z AllMySat

Download on the App Store